Location: Enborne
(51.3833°N, 1.3667°W)
Time: 03:37:30
(UTC+00:00)

Lacrosse 4 Rocket - Pass Details

Date: 18 September 2020
Orbit: 543 x 615 km, 68.0° (Epoch: 18 October)

Event Time Altitude Azimuth Distance (km) Brightness Sun altitude
Rises 19:18:03 0° 326° (NW) 2,719 5.7 -11.0°
Reaches altitude 10° 19:22:27 10° 11° (N) 1,822 4.1 -11.6°
Maximum altitude 19:22:59 10° 19° (NNE) 1,809 3.9 -11.7°
Drops below altitude 10° 19:23:32 10° 27° (NNE) 1,823 3.9 -11.8°
Enters shadow 19:25:55 - 56° (NE) 2,175 4.0 -12.1°
